Overview Statistics Trail Chart Weather Telemetry Raw packets
 

This is the latest recevied weather packets stored in our database for station/object VE1DX. If no packets are shown the sender has not sent any weather packets the latest 10 day(s).

<< 16 17 18 19 20 21 22 >>
Time Temp. Humidity Pressure Rain* Wind** Luminosity Snow
1788518717 17.78° C 100% 1009.7 hPa 8.64 mm - - -
1788518417 17.78° C 100% 1009.8 hPa 8.89 mm - - -
1788518117 17.78° C 100% 1009.8 hPa 9.14 mm - - -
1788517834 17.78° C 100% 1009.8 hPa 9.14 mm - - -
1788517517 17.78° C 100% 1009.9 hPa 9.4 mm - - -
1788517217 17.78° C 100% 1010 hPa 9.14 mm - - -
1788516917 17.78° C 100% 1010.1 hPa 8.89 mm - - -
1788516617 17.78° C 100% 1010.2 hPa 8.13 mm - - -
1788516317 17.78° C 100% 1010.4 hPa 7.62 mm - - -
1788516017 17.78° C 100% 1010.6 hPa 6.6 mm - - -
1788515717 17.78° C 100% 1010.7 hPa 6.1 mm - - -
1788515417 17.78° C 100% 1010.8 hPa 5.59 mm - - -
1788515117 17.78° C 100% 1010.8 hPa 5.33 mm - - -
1788514840 17.78° C 100% 1010.8 hPa 5.08 mm - - -
1788514517 17.78° C 100% 1011 hPa 4.57 mm - - -
1788514217 17.78° C 100% 1011.2 hPa 4.32 mm - - -
1788513917 17.78° C 100% 1011 hPa 4.32 mm - - -
1788513617 17.78° C 100% 1011.1 hPa 4.06 mm - - -
1788513347 17.78° C 100% 1011.2 hPa 3.3 mm - - -
1788513017 17.78° C 100% 1011.4 hPa 3.05 mm - - -
1788512717 17.78° C 100% 1011.4 hPa 2.79 mm - - -
1788512417 17.78° C 100% 1011.4 hPa 2.54 mm - - -
1788512117 17.78° C 100% 1011.3 hPa 2.29 mm - - -
1788511817 17.78° C 100% 1011.4 hPa 2.03 mm - - -
1788511517 17.78° C 100% 1011.4 hPa 1.52 mm - - -

* Rain latest hour (hover to see other rain measurements)
** Current wind speed in m/s (hover to see current wind gust speed)